Flag for USA

Past Weather in Oberlin, Ohio, USA — Yesterday and Last 2 Weeks

Now
56 °F

Mostly cloudy.


Feels Like: 53 °F
Forecast: 61 / 48 °F
Wind: 13 mph from Northeast

Location: Lorain County Regional Airport
Current Time: Sep 18, 2020 at 5:14:03 am
Latest Report: Sep 18, 2020 at 5:01 am
Visibility: 10 mi
Pressure30.13 "Hg
Humidity: 55%
Dew Point: 40 °F
Location of OberlinLocation

Past Weather in Oberlin — Graph

°F

Oberlin Temperature Yesterday

Maximum temperature yesterday: 65 °F (at 12:53 pm)
Minimum temperature yesterday: 54 °F (at 1:53 am)
Average temperature yesterday: 60 °F

High & Low Weather Summary for the Past Weeks

 TemperatureHumidityPressure
High84 °F (Sep 8, 4:53 pm)90% (Sep 3, 5:20 am)30.38 "Hg (Sep 3, 5:20 am)
Low46 °F (Sep 16, 6:53 am)39% (Sep 5, 4:53 pm)29.72 "Hg (Sep 3, 5:53 pm)
Average66 °F73%30.11 "Hg
* Reported Sep 3 3:18 am — Sep 18 3:02 am, Oberlin. Weather by CustomWeather, © 2020

Note: Actual official high and low records may vary slightly from our data, if they occured in-between our weather recording intervals... More about our weather records

Oberlin Weather History for the Previous 24 Hours

Scroll right to see more
 ConditionsComfort  
Time TempWeatherWind HumidityBarometerVisibility
3:02 am
Fri, Sep 18
57 °FMostly cloudy.9 mph60%30.12 "Hg10 mi
1:53 am57 °FOvercast.9 mph55%30.11 "Hg10 mi
12:53 am57 °FPassing clouds.12 mph64%30.12 "Hg10 mi
11:53 pm
Thu, Sep 17
57 °FPassing clouds.9 mph67%30.11 "Hg10 mi
10:53 pm58 °FPassing clouds.12 mph72%30.10 "Hg10 mi
9:53 pm59 °FClear.10 mph69%30.09 "Hg10 mi
8:53 pm57 °FClear.5 mph72%30.08 "Hg10 mi
7:53 pm59 °FOvercast.5 mph69%30.06 "Hg10 mi
6:53 pm61 °FSunny.7 mph62%30.06 "Hg10 mi
5:53 pm64 °FPassing clouds.9 mph54%30.06 "Hg10 mi
4:53 pm65 °FSunny.8 mph52%30.07 "Hg10 mi
3:53 pm65 °FPartly sunny.10 mph59%30.08 "Hg10 mi
2:53 pm65 °FOvercast.10 mph59%30.08 "Hg10 mi
1:53 pm65 °FPartly sunny.10 mph59%30.10 "Hg10 mi
12:53 pm65 °FScattered clouds.13 mph59%30.11 "Hg10 mi
11:53 am63 °FOvercast.13 mph63%30.11 "Hg10 mi
10:53 am63 °FOvercast.15 mph60%30.11 "Hg10 mi
9:53 am62 °FMostly cloudy.13 mph67%30.09 "Hg10 mi
8:53 am62 °FPartly sunny.10 mph67%30.08 "Hg10 mi
7:53 am60 °FPassing clouds.8 mph69%30.07 "Hg10 mi
6:53 am62 °FOvercast.8 mph70%30.05 "Hg10 mi
6:01 am61 °FPassing clouds.8 mph75%30.03 "Hg10 mi
Weather by CustomWeather, © 2020

See weather overview